FW0822 Weather Reports


Display with metric or nautical units.
time (UTC)temp
F
wind
direction
speed
MPH
gust
MPH
rain 1hr
in
rain 24hr
in
rain mn
in
humidity
%
barometer
mb
20260507020044 69 223 0.0 0.0 0.00 0.00 0.00 85 1012.5
20260507014528 69 223 0.0 0.0 0.00 0.00 0.00 83 1012.0
20260507013027 70 224 0.0 0.0 0.00 0.00 0.00 82 1011.9
20260507011539 70 223 0.0 0.0 0.00 0.00 0.00 81 1012.3
20260507010027 70 223 0.0 0.0 0.00 0.00 0.00 81 1012.7
20260507004524 71 223 0.0 0.0 0.00 0.00 0.00 80 1012.3
20260507003023 71 224 0.0 0.0 0.00 0.00 0.00 79 1012.3
20260507001624 71 223 0.0 0.0 0.00 0.00 0.00 78 1012.1
20260507000025 71 223 0.0 0.0 0.00 0.00 0.00 78 1012.2
20260506234524 71 223 0.0 0.0 0.00 0.00 0.00 77 1012.0
20260506233025 71 223 0.0 0.0 0.00 0.00 0.00 77 1012.1
20260506231624 71 230 0.0 0.0 0.00 0.00 0.00 76 1012.0
20260506230033 72 218 0.0 0.0 0.00 0.00 0.00 76 1012.5
20260506224524 72 206 0.0 1.0 0.00 0.00 0.00 76 1012.5
20260506223029 72 216 0.0 0.0 0.00 0.00 0.00 75 1012.5
20260506221624 72 208 0.0 1.0 0.00 0.00 0.00 75 1012.7
20260506220022 72 256 0.0 2.0 0.00 0.00 0.00 75 1012.6
20260506214521 72 216 0.0 4.0 0.00 0.00 0.00 75 1012.1
20260506213020 72 252 0.0 4.0 0.00 0.00 0.00 74 1011.8
20260506211618 71 239 0.0 8.0 0.00 0.00 0.00 75 1012.0
20260506210038 71 226 0.0 4.0 0.00 0.00 0.00 75 1012.2
20260506204517 70 231 0.0 0.0 0.00 0.00 0.00 77 1012.4
20260506203015 70 215 0.0 5.0 0.00 0.00 0.00 78 1012.6
20260506200011 69 233 0.0 3.0 0.00 0.00 0.00 79 1012.4
20260506194510 69 200 0.0 7.0 0.00 0.00 0.00 78 1012.6
20260506193016 69 246 0.0 2.0 0.00 0.00 0.00 79 1012.4
20260506191608 69 241 0.0 5.0 0.00 0.00 0.00 80 1012.8
20260506190012 68 221 0.0 1.0 0.00 0.00 0.00 80 1013.0
20260506184507 68 197 0.0 0.0 0.00 0.00 0.00 80 1012.5
20260506183006 68 217 0.0 0.0 0.00 0.00 0.00 79 1012.7
20260506181605 68 240 0.0 0.0 0.00 0.00 0.00 77 1013.6
20260506180004 68 232 0.0 1.0 0.00 0.00 0.00 76 1014.1
20260506174502 68 229 0.0 0.0 0.00 0.00 0.00 77 1014.6
20260506173109 68 224 0.0 0.0 0.00 0.00 0.00 77 1014.6
20260506171559 67 226 0.0 0.0 0.00 0.00 0.00 77 1014.5
20260506170109 67 234 0.0 0.0 0.00 0.00 0.00 77 1014.5
20260506164624 67 211 0.0 2.0 0.00 0.00 0.00 76 1014.7
20260506163104 67 218 0.0 0.0 0.00 0.00 0.00 76 1014.6
20260506161556 66 232 0.0 0.0 0.00 0.00 0.00 76 1014.7
20260506160105 66 246 0.0 0.0 0.00 0.00 0.00 76 1014.6
20260506154555 66 235 0.0 0.0 0.00 0.00 0.00 76 1014.1
20260506153052 66 208 0.0 0.0 0.00 0.00 0.00 75 1014.3
20260506151554 66 245 0.0 0.0 0.00 0.00 0.00 75 1014.4
20260506150100 66 228 0.0 2.0 0.00 0.00 0.00 75 1014.3
20260506144550 65 223 0.0 2.0 0.00 0.00 0.00 75 1014.4
20260506143048 65 200 0.0 1.0 0.00 0.00 0.00 75 1014.1
20260506141546 64 231 0.0 0.0 0.00 0.00 0.00 75 1014.1
20260506140046 64 215 0.0 0.0 0.00 0.00 0.00 76 1014.0
20260506134543 64 238 0.0 1.0 0.00 0.00 0.00 76 1014.1
20260506133056 63 237 0.0 0.0 0.00 0.00 0.00 77 1014.0
20260506131545 63 234 0.0 0.0 0.00 0.00 0.00 77 1013.9
20260506130043 62 236 0.0 0.0 0.00 0.00 0.00 77 1014.2
20260506124542 62 216 0.0 1.0 0.00 0.00 0.00 78 1014.3
20260506123043 62 228 0.0 1.0 0.00 0.00 0.00 78 1014.6
20260506121545 62 214 0.0 0.0 0.00 0.00 0.00 79 1014.3
20260506120056 62 215 0.0 4.0 0.00 0.00 0.00 79 1014.3
20260506114540 62 234 0.0 1.0 0.00 0.00 0.00 78 1014.1
20260506113040 62 244 0.0 0.0 0.00 0.00 0.00 78 1013.8
20260506111544 62 211 0.0 0.0 0.00 0.00 0.00 77 1013.9
20260506110039 62 232 0.0 0.0 0.00 0.00 0.00 77 1013.7
20260506104548 62 232 0.0 4.0 0.00 0.00 0.00 76 1013.4
20260506103044 62 255 0.0 1.0 0.00 0.00 0.00 76 1013.5
20260506101534 62 229 0.0 0.0 0.00 0.00 0.00 75 1013.3
20260506100032 62 246 0.0 0.0 0.00 0.00 0.00 75 1013.3
20260506094531 62 219 0.0 5.0 0.00 0.00 0.00 75 1013.5
20260506093031 63 229 0.0 6.0 0.00 0.00 0.00 75 1013.3
20260506091528 63 269 0.0 0.0 0.00 0.00 0.00 74 1013.6
20260506090027 63 257 0.0 2.0 0.00 0.00 0.00 74 1013.9
20260506084600 63 250 0.0 2.0 0.00 0.00 0.00 73 1013.9
20260506083026 63 233 0.0 1.0 0.00 0.00 0.00 73 1014.0
20260506081535 63 242 0.0 1.0 0.00 0.00 0.00 73 1014.0
20260506073022 63 260 0.0 0.0 0.00 0.00 0.00 73 1013.9
20260506071520 63 244 0.0 1.0 0.00 0.00 0.00 72 1014.0
20260506061518 65 241 0.0 1.0 0.00 0.00 0.00 70 1014.5
20260506044519 67 266 0.0 3.0 0.00 0.00 0.00 65 1014.6
20260506043016 67 261 0.0 7.0 0.00 0.00 0.00 64 1014.7
20260506041616 67 223 0.0 1.0 0.00 0.00 0.00 62 1014.8
20260506040017 68 245 0.0 1.0 0.00 0.00 0.00 61 1014.6
20260506034517 68 237 0.0 0.0 0.00 0.00 0.00 57 1014.4
20260506033016 68 259 0.0 0.0 0.00 0.00 0.00 55 1014.4
20260506031516 69 269 0.0 0.0 0.00 0.00 0.00 54 1014.6
20260506030015 69 259 0.0 0.0 0.00 0.00 0.00 53 1014.6
20260506024516 70 245 0.0 0.0 0.00 0.00 0.00 52 1014.7
20260506023022 70 232 0.0 0.0 0.00 0.00 0.00 51 1014.9
20260506021623 71 229 0.0 0.0 0.00 0.00 0.00 50 1014.8